Orbital Elements at Epoch 2459000.5 (2020-May-31.0) TDB
Reference: JPL 17 (heliocentric ecliptic J2000)
Element | Value | Uncertainty (1-sigma) | Units |
e | .1643019447494269 | 4.1858e-08 | |
a | 2.328037227911088 | 9.6899e-09 | au |
q | 1.945536183916232 | 9.7034e-08 | au |
i | 3.136693180776174 | 3.9629e-06 | deg |
node | 78.22380228538213 | 0.00010956 | deg |
peri | 50.0911165472348 | 0.00011131 | deg |
M | 215.479840567103 | 2.1535e-05 | deg |
tp | 2459521.345887538865 (2021-Nov-02.84588754) | 7.9769e-05 | TDB |
period | 1297.428125250946 3.55 | 8.1004e-06 2.218e-08 | d yr |
n | .2774720179049375 | 1.7324e-09 | deg/d |
Q | 2.710538271905945 | 1.1282e-08 | au |
|
| | Orbit Determination Parameters
Additional Information
|